Wetterdaten: aktuell Donnerstag, 24.09.2020 04:27
Datum Zeit Temperatur Feuchte A. Luftdruck Regen Wind Richtung Richtung Sonnenschein ET Solar Taupunkt Windchill Windben
24.09.2020 04:27 13,9 C 93 % 1008,1 hPa 0,0 l/m 8,3 km/h (2 Bft) S-SO 155 0 min 0,000 mm 0 W/m 12,8 C 13,9 C 11,3 km/h (2 Bft)
24.09.2020 04:26 13,9 C 93 % 1008,1 hPa 0,0 l/m 8,2 km/h (2 Bft) S 172 0 min 0,000 mm 0 W/m 12,8 C 13,9 C 9,7 km/h (2 Bft)
24.09.2020 04:25 13,9 C 93 % 1008,1 hPa 0,0 l/m 9,3 km/h (2 Bft) S-SO 166 0 min 0,000 mm 0 W/m 12,8 C 13,9 C 11,3 km/h (2 Bft)
24.09.2020 04:24 13,9 C 93 % 1008,1 hPa 0,0 l/m 9,8 km/h (2 Bft) S 189 0 min 0,000 mm 0 W/m 12,8 C 13,9 C 11,3 km/h (2 Bft)
24.09.2020 04:22 13,9 C 93 % 1008,1 hPa 0,0 l/m 9,1 km/h (2 Bft) S 175 0 min 0,000 mm 0 W/m 12,8 C 13,9 C 9,7 km/h (2 Bft)
24.09.2020 04:21 13,9 C 93 % 1008,1 hPa 0,0 l/m 10,0 km/h (2 Bft) S 171 0 min 0,000 mm 0 W/m 12,8 C 13,9 C 11,3 km/h (2 Bft)
24.09.2020 04:20 13,9 C 93 % 1008,2 hPa 0,0 l/m 8,6 km/h (2 Bft) S 170 0 min 0,000 mm 0 W/m 12,8 C 13,9 C 11,3 km/h (2 Bft)
24.09.2020 04:19 13,9 C 93 % 1008,1 hPa 0,0 l/m 6,4 km/h (2 Bft) S 190 0 min 0,000 mm 0 W/m 12,8 C 13,9 C 8,0 km/h (2 Bft)
24.09.2020 04:18 13,9 C 93 % 1008,1 hPa 0,0 l/m 7,2 km/h (2 Bft) S 173 0 min 0,000 mm 0 W/m 12,8 C 13,9 C 9,7 km/h (2 Bft)
24.09.2020 04:16 13,9 C 93 % 1008,1 hPa 0,0 l/m 8,4 km/h (2 Bft) S 190 0 min 0,000 mm 0 W/m 12,8 C 13,9 C 9,7 km/h (2 Bft)
24.09.2020 04:15 14,0 C 93 % 1008,1 hPa 0,0 l/m 6,9 km/h (2 Bft) S-SO 167 0 min 0,000 mm 0 W/m 12,9 C 14,0 C 9,7 km/h (2 Bft)
24.09.2020 04:14 14,0 C 93 % 1008,0 hPa 0,0 l/m 8,1 km/h (2 Bft) S 179 0 min 0,000 mm 0 W/m 12,9 C 14,0 C 9,7 km/h (2 Bft)
24.09.2020 04:13 13,9 C 93 % 1008,1 hPa 0,0 l/m 7,0 km/h (2 Bft) S 174 0 min 0,000 mm 0 W/m 12,8 C 13,9 C 9,7 km/h (2 Bft)
24.09.2020 04:12 13,9 C 93 % 1008,0 hPa 0,0 l/m 8,6 km/h (2 Bft) S-SW 196 0 min 0,000 mm 0 W/m 12,8 C 13,9 C 9,7 km/h (2 Bft)
24.09.2020 04:11 13,9 C 93 % 1008,1 hPa 0,0 l/m 8,5 km/h (2 Bft) S-SW 192 0 min 0,000 mm 0 W/m 12,8 C 13,9 C 9,7 km/h (2 Bft)
24.09.2020 04:10 14,0 C 93 % 1008,0 hPa 0,0 l/m 6,8 km/h (2 Bft) S-SW 207 0 min 0,000 mm 0 W/m 12,9 C 14,0 C 8,0 km/h (2 Bft)
24.09.2020 04:09 14,0 C 93 % 1008,0 hPa 0,0 l/m 6,0 km/h (2 Bft) S-SW 208 0 min 0,000 mm 0 W/m 12,9 C 14,0 C 8,0 km/h (2 Bft)
24.09.2020 04:08 13,9 C 93 % 1008,1 hPa 0,0 l/m 5,5 km/h (2 Bft) S 191 0 min 0,000 mm 0 W/m 12,8 C 13,9 C 6,4 km/h (2 Bft)
24.09.2020 04:07 13,9 C 93 % 1008,1 hPa 0,0 l/m 6,1 km/h (2 Bft) S 190 0 min 0,000 mm 0 W/m 12,8 C 13,9 C 8,0 km/h (2 Bft)
24.09.2020 04:06 13,9 C 93 % 1008,0 hPa 0,0 l/m 5,2 km/h (1 Bft) S 178 0 min 0,000 mm 0 W/m 12,8 C 13,9 C 8,0 km/h (2 Bft)
24.09.2020 04:05 13,9 C 93 % 1008,0 hPa 0,0 l/m 6,7 km/h (2 Bft) S 178 0 min 0,000 mm 0 W/m 12,8 C 13,9 C 8,0 km/h (2 Bft)
24.09.2020 04:04 13,9 C 93 % 1008,0 hPa 0,0 l/m 6,4 km/h (2 Bft) S-SW 193 0 min 0,000 mm 0 W/m 12,8 C 13,9 C 8,0 km/h (2 Bft)
24.09.2020 04:03 13,9 C 93 % 1008,0 hPa 0,0 l/m 7,5 km/h (2 Bft) S 180 0 min 0,000 mm 0 W/m 12,8 C 13,9 C 11,3 km/h (2 Bft)
24.09.2020 04:00 14,0 C 93 % 1008,0 hPa 0,0 l/m 7,9 km/h (2 Bft) S 174 0 min 0,000 mm 0 W/m 12,9 C 14,0 C 9,7 km/h (2 Bft)
24.09.2020 03:59 14,0 C 93 % 1008,0 hPa 0,0 l/m 6,7 km/h (2 Bft) S 188 0 min 0,000 mm 0 W/m 12,9 C 14,0 C 8,0 km/h (2 Bft)
24.09.2020 03:58 13,9 C 93 % 1008,0 hPa 0,0 l/m 8,6 km/h (2 Bft) S 173 0 min 0,000 mm 0 W/m 12,8 C 13,9 C 11,3 km/h (2 Bft)
24.09.2020 03:57 13,9 C 93 % 1008,0 hPa 0,0 l/m 7,5 km/h (2 Bft) S-SO 167 0 min 0,000 mm 0 W/m 12,8 C 13,9 C 9,7 km/h (2 Bft)
24.09.2020 03:56 13,9 C 93 % 1008,1 hPa 0,0 l/m 7,7 km/h (2 Bft) S-SW 205 0 min 0,000 mm 0 W/m 12,8 C 13,9 C 9,7 km/h (2 Bft)
24.09.2020 03:55 13,9 C 93 % 1008,0 hPa 0,0 l/m 7,6 km/h (2 Bft) S-SW 198 0 min 0,000 mm 0 W/m 12,8 C 13,9 C 9,7 km/h (2 Bft)
24.09.2020 03:54 13,9 C 93 % 1008,0 hPa 0,0 l/m 7,8 km/h (2 Bft) S 189 0 min 0,000 mm 0 W/m 12,8 C 13,9 C 9,7 km/h (2 Bft)
24.09.2020 03:53 13,9 C 93 % 1008,0 hPa 0,0 l/m 10,1 km/h (2 Bft) S-SW 202 0 min 0,000 mm 0 W/m 12,8 C 13,9 C 12,9 km/h (3 Bft)
24.09.2020 03:52 13,9 C 93 % 1008,0 hPa 0,0 l/m 9,5 km/h (2 Bft) S 186 0 min 0,000 mm 0 W/m 12,8 C 13,9 C 11,3 km/h (2 Bft)
24.09.2020 03:51 13,9 C 93 % 1008,0 hPa 0,0 l/m 9,5 km/h (2 Bft) S 180 0 min 0,000 mm 0 W/m 12,8 C 13,9 C 11,3 km/h (2 Bft)
24.09.2020 03:50 13,9 C 93 % 1007,9 hPa 0,0 l/m 9,3 km/h (2 Bft) S 173 0 min 0,000 mm 0 W/m 12,8 C 13,9 C 11,3 km/h (2 Bft)
24.09.2020 03:49 14,0 C 93 % 1007,9 hPa 0,0 l/m 7,9 km/h (2 Bft) S 182 0 min 0,000 mm 0 W/m 12,9 C 14,0 C 11,3 km/h (2 Bft)
24.09.2020 03:48 14,0 C 93 % 1007,8 hPa 0,0 l/m 6,0 km/h (2 Bft) S 188 0 min 0,000 mm 0 W/m 12,9 C 14,0 C 8,0 km/h (2 Bft)
24.09.2020 03:46 14,0 C 93 % 1007,9 hPa 0,0 l/m 8,6 km/h (2 Bft) S 186 0 min 0,000 mm 0 W/m 12,9 C 14,0 C 11,3 km/h (2 Bft)
24.09.2020 03:45 14,1 C 93 % 1007,9 hPa 0,0 l/m 6,3 km/h (2 Bft) S-SW 205 0 min 0,000 mm 0 W/m 13,0 C 14,1 C 8,0 km/h (2 Bft)
24.09.2020 03:44 14,0 C 93 % 1007,9 hPa 0,0 l/m 6,8 km/h (2 Bft) S-SW 209 0 min 0,000 mm 0 W/m 12,9 C 14,0 C 9,7 km/h (2 Bft)
24.09.2020 03:43 14,0 C 93 % 1007,9 hPa 0,0 l/m 7,5 km/h (2 Bft) S 171 0 min 0,000 mm 0 W/m 12,9 C 14,0 C 11,3 km/h (2 Bft)
24.09.2020 03:41 14,1 C 93 % 1007,8 hPa 0,0 l/m 8,9 km/h (2 Bft) S 177 0 min 0,000 mm 0 W/m 13,0 C 14,1 C 11,3 km/h (2 Bft)
24.09.2020 03:40 14,1 C 93 % 1007,8 hPa 0,0 l/m 9,5 km/h (2 Bft) S 171 0 min 0,000 mm 0 W/m 13,0 C 14,1 C 11,3 km/h (2 Bft)
24.09.2020 03:39 14,1 C 93 % 1007,8 hPa 0,0 l/m 8,9 km/h (2 Bft) S 169 0 min 0,000 mm 0 W/m 13,0 C 14,1 C 9,7 km/h (2 Bft)
24.09.2020 03:38 14,1 C 93 % 1007,8 hPa 0,0 l/m 7,5 km/h (2 Bft) S 186 0 min 0,000 mm 0 W/m 13,0 C 14,1 C 9,7 km/h (2 Bft)
24.09.2020 03:37 14,1 C 93 % 1007,8 hPa 0,0 l/m 7,7 km/h (2 Bft) S 171 0 min 0,000 mm 0 W/m 13,0 C 14,1 C 9,7 km/h (2 Bft)
24.09.2020 03:36 14,1 C 93 % 1007,8 hPa 0,0 l/m 8,2 km/h (2 Bft) S 178 0 min 0,000 mm 0 W/m 13,0 C 14,1 C 9,7 km/h (2 Bft)
24.09.2020 03:35 14,1 C 93 % 1007,8 hPa 0,0 l/m 8,1 km/h (2 Bft) S 180 0 min 0,000 mm 0 W/m 13,0 C 14,1 C 9,7 km/h (2 Bft)
24.09.2020 03:34 14,1 C 93 % 1007,8 hPa 0,0 l/m 7,9 km/h (2 Bft) S 187 0 min 0,000 mm 0 W/m 13,0 C 14,1 C 9,7 km/h (2 Bft)
24.09.2020 03:32 14,1 C 93 % 1007,8 hPa 0,0 l/m 9,6 km/h (2 Bft) S 180 0 min 0,000 mm 0 W/m 13,0 C 14,1 C 12,9 km/h (3 Bft)
24.09.2020 03:31 14,1 C 93 % 1007,8 hPa 0,0 l/m 9,8 km/h (2 Bft) S 185 0 min 0,000 mm 0 W/m 13,0 C 14,1 C 12,9 km/h (3 Bft)
24.09.2020 03:30 14,1 C 93 % 1007,8 hPa 0,0 l/m 9,3 km/h (2 Bft) S 180 0 min 0,000 mm 0 W/m 13,0 C 14,1 C 11,3 km/h (2 Bft)
24.09.2020 03:29 14,1 C 93 % 1007,8 hPa 0,0 l/m 8,9 km/h (2 Bft) S 178 0 min 0,000 mm 0 W/m 13,0 C 14,1 C 9,7 km/h (2 Bft)
24.09.2020 03:28 14,1 C 93 % 1007,7 hPa 0,0 l/m 7,0 km/h (2 Bft) S 180 0 min 0,000 mm 0 W/m 13,0 C 14,1 C 9,7 km/h (2 Bft)
24.09.2020 03:27 14,1 C 93 % 1007,7 hPa 0,0 l/m 8,6 km/h (2 Bft) S-SO 168 0 min 0,000 mm 0 W/m 13,0 C 14,1 C 11,3 km/h (2 Bft)
24.09.2020 03:26 14,2 C 93 % 1007,7 hPa 0,0 l/m 9,2 km/h (2 Bft) S 176 0 min 0,000 mm 0 W/m 13,1 C 14,2 C 11,3 km/h (2 Bft)
24.09.2020 03:25 14,1 C 93 % 1007,7 hPa 0,0 l/m 8,5 km/h (2 Bft) S-SO 167 0 min 0,000 mm 0 W/m 13,0 C 14,1 C 9,7 km/h (2 Bft)
24.09.2020 03:24 14,1 C 93 % 1007,7 hPa 0,0 l/m 7,2 km/h (2 Bft) S 178 0 min 0,000 mm 0 W/m 13,0 C 14,1 C 8,0 km/h (2 Bft)
24.09.2020 03:23 14,1 C 93 % 1007,7 hPa 0,0 l/m 6,6 km/h (2 Bft) S 177 0 min 0,000 mm 0 W/m 13,0 C 14,1 C 8,0 km/h (2 Bft)
24.09.2020 03:22 14,1 C 93 % 1007,8 hPa 0,0 l/m 8,2 km/h (2 Bft) S 177 0 min 0,000 mm 0 W/m 13,0 C 14,1 C 9,7 km/h (2 Bft)
24.09.2020 03:21 14,1 C 93 % 1007,8 hPa 0,0 l/m 9,6 km/h (2 Bft) S-SW 192 0 min 0,000 mm 0 W/m 13,0 C 14,1 C 11,3 km/h (2 Bft)
24.09.2020 03:20 14,1 C 93 % 1007,8 hPa 0,0 l/m 7,6 km/h (2 Bft) S 176 0 min 0,000 mm 0 W/m 13,0 C 14,1 C 9,7 km/h (2 Bft)
24.09.2020 03:19 14,1 C 93 % 1007,7 hPa 0,0 l/m 8,2 km/h (2 Bft) S 190 0 min 0,000 mm 0 W/m 13,0 C 14,1 C 9,7 km/h (2 Bft)
24.09.2020 03:18 14,1 C 93 % 1007,8 hPa 0,0 l/m 8,2 km/h (2 Bft) S-SW 194 0 min 0,000 mm 0 W/m 13,0 C 14,1 C 11,3 km/h (2 Bft)
24.09.2020 03:17 14,1 C 93 % 1007,8 hPa 0,0 l/m 8,2 km/h (2 Bft) S 179 0 min 0,000 mm 0 W/m 13,0 C 14,1 C 11,3 km/h (2 Bft)
24.09.2020 03:16 14,1 C 93 % 1007,8 hPa 0,0 l/m 10,6 km/h (2 Bft) S 183 0 min 0,000 mm 0 W/m 13,0 C 14,1 C 12,9 km/h (3 Bft)
24.09.2020 03:15 14,1 C 93 % 1007,8 hPa 0,0 l/m 9,1 km/h (2 Bft) S 172 0 min 0,000 mm 0 W/m 13,0 C 14,1 C 11,3 km/h (2 Bft)
24.09.2020 03:14 14,2 C 93 % 1007,7 hPa 0,0 l/m 8,4 km/h (2 Bft) S 189 0 min 0,000 mm 0 W/m 13,1 C 14,2 C 11,3 km/h (2 Bft)
24.09.2020 03:13 14,1 C 93 % 1007,7 hPa 0,0 l/m 8,4 km/h (2 Bft) S 188 0 min 0,000 mm 0 W/m 13,0 C 14,1 C 11,3 km/h (2 Bft)
24.09.2020 03:12 14,1 C 93 % 1007,7 hPa 0,0 l/m 7,9 km/h (2 Bft) S-SO 164 0 min 0,000 mm 0 W/m 13,0 C 14,1 C 9,7 km/h (2 Bft)
24.09.2020 03:11 14,2 C 93 % 1007,7 hPa 0,0 l/m 6,1 km/h (2 Bft) S 177 0 min 0,000 mm 0 W/m 13,1 C 14,2 C 9,7 km/h (2 Bft)
24.09.2020 03:10 14,2 C 93 % 1007,7 hPa 0,0 l/m 8,9 km/h (2 Bft) S 187 0 min 0,000 mm 0 W/m 13,1 C 14,2 C 11,3 km/h (2 Bft)
24.09.2020 03:09 14,2 C 93 % 1007,7 hPa 0,0 l/m 6,9 km/h (2 Bft) S 185 0 min 0,000 mm 0 W/m 13,1 C 14,2 C 9,7 km/h (2 Bft)
24.09.2020 03:08 14,2 C 93 % 1007,7 hPa 0,0 l/m 6,8 km/h (2 Bft) S 188 0 min 0,000 mm 0 W/m 13,1 C 14,2 C 9,7 km/h (2 Bft)
24.09.2020 03:07 14,1 C 92 % 1007,8 hPa 0,0 l/m 7,2 km/h (2 Bft) S 182 0 min 0,000 mm 0 W/m 12,8 C 14,1 C 9,7 km/h (2 Bft)
24.09.2020 03:06 14,1 C 92 % 1007,7 hPa 0,0 l/m 7,0 km/h (2 Bft) S-SW 201 0 min 0,000 mm 0 W/m 12,8 C 14,1 C 8,0 km/h (2 Bft)
24.09.2020 03:05 14,1 C 92 % 1007,8 hPa 0,0 l/m 8,5 km/h (2 Bft) S-SW 192 0 min 0,000 mm 0 W/m 12,8 C 14,1 C 11,3 km/h (2 Bft)
24.09.2020 03:04 14,1 C 92 % 1007,8 hPa 0,0 l/m 10,1 km/h (2 Bft) S-SW 193 0 min 0,000 mm 0 W/m 12,8 C 14,1 C 12,9 km/h (3 Bft)
24.09.2020 03:03 14,1 C 92 % 1007,8 hPa 0,0 l/m 8,2 km/h (2 Bft) S-SW 192 0 min 0,000 mm 0 W/m 12,8 C 14,1 C 11,3 km/h (2 Bft)
24.09.2020 03:01 14,1 C 92 % 1007,7 hPa 0,0 l/m 9,7 km/h (2 Bft) S 174 0 min 0,000 mm 0 W/m 12,8 C 14,1 C 11,3 km/h (2 Bft)
24.09.2020 03:00 14,2 C 92 % 1007,8 hPa 0,0 l/m 8,8 km/h (2 Bft) S 179 0 min 0,000 mm 0 W/m 12,9 C 14,2 C 12,9 km/h (3 Bft)
24.09.2020 02:59 14,2 C 92 % 1007,8 hPa 0,0 l/m 7,9 km/h (2 Bft) S 184 0 min 0,000 mm 0 W/m 12,9 C 14,2 C 9,7 km/h (2 Bft)
24.09.2020 02:58 14,2 C 92 % 1007,8 hPa 0,0 l/m 9,5 km/h (2 Bft) S-SO 165 0 min 0,000 mm 0 W/m 12,9 C 14,2 C 12,9 km/h (3 Bft)
24.09.2020 02:57 14,2 C 92 % 1007,8 hPa 0,0 l/m 11,3 km/h (2 Bft) S 170 0 min 0,000 mm 0 W/m 12,9 C 14,2 C 12,9 km/h (3 Bft)
24.09.2020 02:56 14,2 C 92 % 1007,8 hPa 0,0 l/m 8,2 km/h (2 Bft) S-SO 164 0 min 0,000 mm 0 W/m 12,9 C 14,2 C 11,3 km/h (2 Bft)
24.09.2020 02:55 14,2 C 92 % 1007,8 hPa 0,0 l/m 9,2 km/h (2 Bft) S 169 0 min 0,000 mm 0 W/m 12,9 C 14,2 C 12,9 km/h (3 Bft)
24.09.2020 02:53 14,3 C 93 % 1007,8 hPa 0,0 l/m 10,7 km/h (2 Bft) S 178 0 min 0,000 mm 0 W/m 13,2 C 14,3 C 14,5 km/h (3 Bft)
24.09.2020 02:52 14,3 C 92 % 1007,8 hPa 0,0 l/m 9,0 km/h (2 Bft) S 183 0 min 0,000 mm 0 W/m 13,0 C 14,3 C 12,9 km/h (3 Bft)
24.09.2020 02:51 14,3 C 93 % 1007,8 hPa 0,0 l/m 10,1 km/h (2 Bft) S 184 0 min 0,000 mm 0 W/m 13,2 C 14,3 C 11,3 km/h (2 Bft)
24.09.2020 02:50 14,3 C 93 % 1007,8 hPa 0,0 l/m 10,0 km/h (2 Bft) S 184 0 min 0,000 mm 0 W/m 13,2 C 14,3 C 14,5 km/h (3 Bft)
24.09.2020 02:49 14,3 C 93 % 1007,9 hPa 0,0 l/m 9,3 km/h (2 Bft) S 175 0 min 0,000 mm 0 W/m 13,2 C 14,3 C 12,9 km/h (3 Bft)
24.09.2020 02:48 14,3 C 93 % 1007,8 hPa 0,0 l/m 11,2 km/h (2 Bft) S 182 0 min 0,000 mm 0 W/m 13,2 C 14,3 C 14,5 km/h (3 Bft)
24.09.2020 02:47 14,3 C 93 % 1007,8 hPa 0,0 l/m 9,3 km/h (2 Bft) S 182 0 min 0,000 mm 0 W/m 13,2 C 14,3 C 11,3 km/h (2 Bft)
24.09.2020 02:46 14,3 C 93 % 1007,8 hPa 0,0 l/m 8,1 km/h (2 Bft) S 180 0 min 0,000 mm 0 W/m 13,2 C 14,3 C 9,7 km/h (2 Bft)
24.09.2020 02:45 14,3 C 93 % 1007,7 hPa 0,0 l/m 6,8 km/h (2 Bft) S-SW 192 0 min 0,000 mm 0 W/m 13,2 C 14,3 C 9,7 km/h (2 Bft)
24.09.2020 02:44 14,3 C 93 % 1007,8 hPa 0,0 l/m 8,4 km/h (2 Bft) S 189 0 min 0,000 mm 0 W/m 13,2 C 14,3 C 11,3 km/h (2 Bft)
24.09.2020 02:42 14,3 C 92 % 1007,8 hPa 0,0 l/m 9,2 km/h (2 Bft) S 183 0 min 0,000 mm 0 W/m 13,0 C 14,3 C 11,3 km/h (2 Bft)
24.09.2020 02:41 14,3 C 93 % 1007,8 hPa 0,0 l/m 8,5 km/h (2 Bft) S 174 0 min 0,000 mm 0 W/m 13,2 C 14,3 C 11,3 km/h (2 Bft)
24.09.2020 02:40 14,3 C 92 % 1007,8 hPa 0,0 l/m 8,3 km/h (2 Bft) S 180 0 min 0,000 mm 0 W/m 13,0 C 14,3 C 11,3 km/h (2 Bft)
24.09.2020 02:39 14,3 C 92 % 1007,8 hPa 0,0 l/m 8,4 km/h (2 Bft) S 174 0 min 0,000 mm 0 W/m 13,0 C 14,3 C 9,7 km/h (2 Bft)
24.09.2020 02:38 14,3 C 92 % 1007,8 hPa 0,0 l/m 9,2 km/h (2 Bft) S 175 0 min 0,000 mm 0 W/m 13,0 C 14,3 C 11,3 km/h (2 Bft)
_ Min-Zeit 09:08 05:00 07:21 - 05:07 - - - - - 09:08 09:08 05:07
Minimum _ 13,8 C 83 % 1006,4 hPa - 0,0 km/h (0 Bft) - - - - - 12,0 C 13,8 C 0,0 km/h (0 Bft)
_ Max-Zeit 16:51 02:41 12:11 09:13 07:54 - - 07:12 16:00 16:44 15:50 16:51 07:54
Maximum _ 15,9 C 93 % 1008,4 hPa 5,0 l/m 16,7 km/h
SW (3 Bft)
- - 2 min 0,102 mm 281 W/m 14,2 C 15,9 C 20,9 km/h
W-SW (4 Bft)
Durchschnitt _ 14,7 C 90 % 1007,7 hPa #59,4 l/m 4,4 km/h (1 Bft) S - #0 min. #0,000 mm 0 W/m 13,0 C 14,7 C 6,0 km/h (2 Bft)
Wetterstation Eggerszell